KASTKMMV

Guest
Details From KAST - Astoria Rgnl
To KMMV - MC MINNVILLE MUNI
Flight Number -
Tags generated
Created
Modified
Stats Distance 66 nm / 122 km
Max Altitude 500 ft / 152 m
Waypoints 3
Social Downloads 0
Likes 0
Share VATSIM

Download

Looking for another format? Having issues loading an existing format? Contact us
Advertisement - Login to hide

Notes

Basic altitude profile: - Ascent Rate: 2500ft/min - Ascent Speed: 250kts - Cruise Altitude: 35000ft - Cruise Speed: 420kts - Descent Rate: 1500ft/min - Descent Speed: 250kts Options: - Use NATs: yes - Use PACOTS: yes - Use low airways: yes - Use high airways: no

Route

KAST OLORE KMMV

ID Type Via Altitude Latitude Longitude Leg Dist Tot Dist Heading (true) Name
O KAST APT - 0 ft / 0 m 46.15789˚ -123.87872˚ - 0 nm - Astoria Rgnl
OLORE FIX - 500 ft / 152 m 45.23536˚ -123.14506˚ 63 nm 63 nm 151° / 151° -
O KMMV APT - 0 ft / 0 m 45.19435˚ -123.13567˚ 2 nm 65 nm 171° / 171° MC MINNVILLE MUNI

Altitude Profile

Advertisement - Login to hide

KAST

Details ICAO KAST (AST)
Name Astoria Rgnl
Region United States
Timezone America/Los_Angeles (UTC-7.0)
Stats Elevation 15 ft / 5 m (AMSL)
Location 46.157894° -123.878724°
Runways 2
Magnetic Variation 15.577° E

METAR

KAST 230155Z AUTO 31014G20KT 10SM CLR 15/12 A2986 RMK AO2 SLP111 T01500122

Decode

TAF

KAST 222340Z 2300/2324 33008KT P6SM SKC FM230400 30009KT P6SM BKN015 FM230800 28004KT 4SM BR OVC008 FM231700 28004KT P6SM BKN011

Decode

Departure Runways

ID Width Length Bearing (true) Bearing (mag) Surface Threshold Offset Overrun Length
08 98 ft / 30 m 5,779 ft / 1,762 m 95.49° 79.91° Asphalt 302 ft / 92 m 0 ft / 0 m
13 98 ft / 30 m 4,997 ft / 1,523 m 153.70° 138.12° Asphalt 328 ft / 100 m 0 ft / 0 m
26 98 ft / 30 m 5,779 ft / 1,762 m 275.51° 259.93° Asphalt 705 ft / 215 m 0 ft / 0 m
31 98 ft / 30 m 4,997 ft / 1,523 m 333.70° 318.12° Asphalt 203 ft / 62 m 0 ft / 0 m

KMMV

Details ICAO KMMV (MMV)
Name MC MINNVILLE MUNI
Region United States
Timezone America/Los_Angeles (UTC-7.0)
Stats Elevation 163 ft / 50 m (AMSL)
Location 45.194348° -123.135667°
Runways 2
Magnetic Variation 15.235° E

METAR

KMMV 230153Z AUTO 22012KT 10SM CLR 23/15 A2975 RMK AO2 SLP072 T02280150

Decode

TAF

Not found

Destination Runways

ID Width Length Bearing (true) Bearing (mag) Surface Threshold Offset Overrun Length
04 151 ft / 46 m 5,411 ft / 1,649 m 57.10° 41.86° Asphalt 0 ft / 0 m 1,001 ft / 305 m
17 151 ft / 46 m 4,680 ft / 1,427 m 185.87° 170.63° Asphalt 0 ft / 0 m 0 ft / 0 m
22 151 ft / 46 m 5,411 ft / 1,649 m 237.12° 221.88° Asphalt 0 ft / 0 m 0 ft / 0 m
35 151 ft / 46 m 4,680 ft / 1,427 m 5.87° 350.63° Asphalt 0 ft / 0 m 0 ft / 0 m

Approach Navaids

Runway Type Ident Frequency Range Bearing (true) Bearing (mag) Slope Elevation
22 Localiser IMMV 110.90 MHz 18 nm / 33 km 237.09° 221.86° - 158 ft / 48 m (AMSL)
22 Glidescope IMMV 110.90 MHz 10 nm / 19 km 237.11° 221.88° 3.00° 160 ft / 49 m (AMSL)